Regional Weather Roundup
Issued by NWS State College, PA

Home | Current Version | Previous Version | Graphics & Text | Print | Product List | Glossary On
Versions: 1 2 3 4 5 6 7 8 9 10 11 12 13 14 15 16 17 18 19 20 21 22 23 24 25 26 27 28 29 30 31 32 33 34 35 36 37 38 39 40 41 42 43 44 45 46 47 48 49 50
000
ASUS41 KCTP 141003
RWRCTP

REGIONAL WEATHER ROUNDUP
NATIONAL WEATHER SERVICE STATE COLLEGE PA
600 AM EDT MON JUL 14 2014

Note: "fair" indicates few or no clouds below 12,000 feet with no
significant weather and/or obstructions to visibility.

* = STATION THAT DOES NOT REPORT PRECIPITATION /E.G. RAIN...SNOW...ETC/
    THUNDER OR FOG.

PAZ002>004-007>009-013>016-020>023-029>032-141100-
WESTERN PENNSYLVANIA

CITY           SKY/WX    TMP DP  RH WIND       PRES   REMARKS
ERIE           CLEAR     67  62  84 S5        29.88S
MEADVILLE      FOG       68  66  93 S6        29.93R VSB 1/4
FRANKLIN*      CLOUDY    66  64  94 S7        29.95S VSB 1/4
NEW CASTLE       N/A     70  69  96 CALM      29.93S FOG
BEAVER COUNTY  NOT AVBL
BUTLER*        CLOUDY    70  66  88 S3        29.95S
PITTSBURGH INT CLOUDY    72  69  90 S3        29.93S
PITTSBURGH     CLOUDY    70  67  90 S6        29.93S FOG
INDIANA*       CLOUDY    70  68  94 SW6       29.99S FOG
LATROBE        CLOUDY    72  72 100 S6        29.95S
WASHINGTON CO* CLOUDY    70  68  94 SW5       29.94S
$$

PAZ004>006-010>012-017>019-024>028-033>037-041-042-045-046-049>053-141100-
CENTRAL PENNSYLVANIA

CITY           SKY/WX    TMP DP  RH WIND       PRES   REMARKS
BRADFORD       CLOUDY    65  63  93 CALM      29.97R
DUBOIS         CLOUDY    69  67  93 SW3       29.95S FOG
CLEARFIELD     FOG       67  67 100 CALM      29.96R VSB 1/4
JOHNSTOWN      CLOUDY    66  65  96 SW5       29.99R
ALTOONA        MOCLDY    69  67  93 SW6       29.96S
STATE COLLEGE  MOCLDY    66  66 100 CALM      29.95R FOG
WILLIAMSPORT   PTCLDY    70  67  90 CALM      29.90S
SELINSGROVE    CLOUDY    70  69  97 CALM      29.92S FOG
FT INDIANTOWN  CLOUDY    69  69 100 SE2       29.92S
CAPITAL CITY   CLOUDY    69  68  96 CALM      29.91S
HARRISBURG     CLOUDY    72  68  87 W3        29.90S
YORK           CLOUDY    70  68  93 CALM      29.92R
$$

PAZ038>040-043-044-047-048-054-055-060>062-067>071-141100-
EASTERN PENNSYLVANIA

CITY           SKY/WX    TMP DP  RH WIND       PRES   REMARKS
SCRANTON       CLOUDY    71  67  87 SW3       29.93S
MOUNT POCONO   CLOUDY    67  65  93 W6        29.97R FOG
ALLENTOWN      CLOUDY    72  69  90 SW3       29.92R
QUAKERTOWN*    SUNNY     66  66 100 CALM      29.94S
READING        PTCLDY    70  68  93 CALM      29.90F
LANCASTER      CLOUDY    69  68  96 NE3       29.91F
COATESVILLE    MOSUNNY   68  68 100 CALM      29.93F
POTTSTOWN      CLEAR     68  67  96 CALM      29.93F
BLUE BELL      PTCLDY    72  70  94 CALM      29.92S
DOYLESTOWN     PTCLDY    68  68 100 CALM      29.92S
WILLOW GROVE   NOT AVBL
NORTH PHILA    MOCLDY    73  68  84 CALM      29.93S
PHILADELPHIA   MOCLDY    75  67  76 W3        29.92S
$$


USA.gov is the U.S. government's official web portal to all federal, state and local government web resources and services.